When you browse on this site, cookies collect data to enhance your experience and personalize the content and advertising you see.
Visit our Privacy Policy to learn more. By continuing to use the site, you agree to this use of cookies and data.
  • In Latvia
  • List of Countries
  • For 7 days
  • Water Temperature
  • Weather Map
  • Weather Widgets
  • user-avatar
    Login

    Hourly Weather Lugano

    Today, 15 September, Sunday

    Time Temperature Precipitation Wind Pressure Humidity
    00:00 +21°C° 0 mm 1 mps 745 mmHg 84%
    01:00 +21°C° 0 mm 1 mps 745 mmHg 85%
    02:00 +21°C° 0 mm 1 mps 744 mmHg 85%
    03:00 +20°C° 0 mm 1 mps 744 mmHg 86%
    04:00 +20°C° 0 mm 1 mps 744 mmHg 86%
    05:00 +20°C° 0 mm 1 mps 744 mmHg 85%
    06:00 +21°C° 0 mm 1 mps 744 mmHg 85%
    07:00 +21°C° 0 mm 1 mps 744 mmHg 84%
    08:00 +23°C° 0 mm 1 mps 744 mmHg 76%
    09:00 +25°C° 0 mm 1 mps 744 mmHg 69%
    10:00 +27°C° 0 mm 1 mps 744 mmHg 62%
    11:00 +28°C° 0 mm 1 mps 743 mmHg 59%
    12:00 +29°C° 0 mm 1 mps 743 mmHg 57%
    13:00 +29°C° 0 mm 1 mps 743 mmHg 55%
    14:00 +29°C° 0.1 mm 1 mps 742 mmHg 57%
    15:00 +29°C° 0.1 mm 1 mps 742 mmHg 59%
    16:00 +29°C° 0.1 mm 1 mps 741 mmHg 61%
    17:00 +27°C° 0.1 mm 1 mps 741 mmHg 68%
    18:00 +25°C° 0.1 mm 1 mps 741 mmHg 75%
    19:00 +21°C° 0.1 mm 0 mps 741 mmHg 83%
    20:00 +21°C° 0.1 mm 0 mps 741 mmHg 84%
    21:00 +22°C° 0.1 mm 1 mps 741 mmHg 85%
    22:00 +22°C° 0.1 mm 1 mps 742 mmHg 86%
    23:00 +21°C° 0.1 mm 1 mps 741 mmHg 86%

    Tomorrow, 16 September, Monday

    Time Temperature Precipitation Wind Pressure Humidity
    00:00 +21°C° 0.1 mm 1 mps 741 mmHg 86%
    01:00 +21°C° 0.1 mm 1 mps 741 mmHg 87%
    02:00 +21°C° 0 mm 1 mps 741 mmHg 86%
    03:00 +21°C° 0 mm 1 mps 741 mmHg 86%
    04:00 +20°C° 0 mm 1 mps 740 mmHg 86%
    05:00 +21°C° 0 mm 1 mps 740 mmHg 84%
    06:00 +21°C° 0 mm 1 mps 740 mmHg 83%
    07:00 +21°C° 0 mm 1 mps 740 mmHg 81%
    08:00 +23°C° 0 mm 1 mps 740 mmHg 74%
    09:00 +26°C° 0 mm 1 mps 740 mmHg 66%
    10:00 +28°C° 0 mm 1 mps 740 mmHg 58%
    11:00 +29°C° 0 mm 1 mps 740 mmHg 55%
    12:00 +30°C° 0 mm 1 mps 739 mmHg 53%
    13:00 +31°C° 0 mm 2 mps 739 mmHg 50%
    14:00 +30°C° 0 mm 2 mps 738 mmHg 53%
    15:00 +30°C° 0 mm 1 mps 738 mmHg 55%
    16:00 +30°C° 0 mm 1 mps 737 mmHg 57%
    17:00 +28°C° 0.2 mm 1 mps 737 mmHg 65%
    18:00 +26°C° 0.2 mm 1 mps 737 mmHg 73%
    19:00 +22°C° 0.2 mm 0 mps 737 mmHg 81%
    20:00 +23°C° 0 mm 1 mps 738 mmHg 81%
    21:00 +23°C° 0 mm 1 mps 738 mmHg 82%
    22:00 +22°C° 0 mm 1 mps 738 mmHg 82%
    23:00 +21°C° 0 mm 2 mps 738 mmHg 81%

    Day after tomorrow, 17 September, Tuesday

    Time Temperature Precipitation Wind Pressure Humidity
    00:00 +20°C° 0 mm 2 mps 738 mmHg 81%
    01:00 +20°C° 0 mm 2 mps 737 mmHg 80%
    02:00 +20°C° 0 mm 2 mps 737 mmHg 79%
    03:00 +19°C° 0 mm 2 mps 737 mmHg 78%
    04:00 +19°C° 0 mm 2 mps 737 mmHg 77%
    05:00 +19°C° 0 mm 2 mps 737 mmHg 76%
    06:00 +19°C° 0 mm 2 mps 737 mmHg 76%
    07:00 +19°C° 0 mm 2 mps 736 mmHg 75%
    08:00 +23°C° 0 mm 1 mps 737 mmHg 66%
    09:00 +26°C° 0 mm 1 mps 737 mmHg 58%
    10:00 +26°C° 0 mm 0 mps 737 mmHg 50%
    11:00 +29°C° 0 mm 1 mps 737 mmHg 48%
    12:00 +30°C° 0 mm 1 mps 736 mmHg 46%
    13:00 +30°C° 0 mm 2 mps 736 mmHg 45%
    14:00 +30°C° 0 mm 2 mps 735 mmHg 47%
    15:00 +30°C° 0 mm 2 mps 735 mmHg 50%
    16:00 +29°C° 0 mm 2 mps 735 mmHg 52%
    17:00 +27°C° 0.1 mm 1 mps 735 mmHg 61%
    18:00 +25°C° 0.1 mm 1 mps 735 mmHg 69%
    19:00 +23°C° 0.1 mm 1 mps 735 mmHg 77%
    20:00 +23°C° 0.1 mm 1 mps 735 mmHg 78%
    21:00 +22°C° 0.1 mm 1 mps 735 mmHg 78%
    22:00 +20°C° 0.1 mm 2 mps 736 mmHg 79%
    23:00 +20°C° 0.1 mm 2 mps 736 mmHg 79%

    18 September, Wednesday

    Time Temperature Precipitation Wind Pressure Humidity
    00:00 +20°C° 0.1 mm 2 mps 736 mmHg 79%
    01:00 +19°C° 0.1 mm 2 mps 735 mmHg 78%
    02:00 +19°C° 0.1 mm 2 mps 735 mmHg 77%
    03:00 +18°C° 0.1 mm 2 mps 735 mmHg 76%
    04:00 +18°C° 0.1 mm 2 mps 735 mmHg 75%
    05:00 +19°C° 0.1 mm 1 mps 735 mmHg 74%
    06:00 +19°C° 0.1 mm 1 mps 735 mmHg 74%
    07:00 +19°C° 0.1 mm 1 mps 735 mmHg 73%
    08:00 +22°C° 0.1 mm 1 mps 735 mmHg 67%
    09:00 +24°C° 0.1 mm 1 mps 736 mmHg 61%
    10:00 +24°C° 0.1 mm 0 mps 736 mmHg 55%
    11:00 +26°C° 0.1 mm 1 mps 736 mmHg 56%
    12:00 +26°C° 0.1 mm 1 mps 735 mmHg 56%
    13:00 +27°C° 0.1 mm 2 mps 735 mmHg 57%
    14:00 +26°C° 0.4 mm 2 mps 735 mmHg 64%
    15:00 +25°C° 0.4 mm 2 mps 735 mmHg 71%
    16:00 +24°C° 0.4 mm 2 mps 735 mmHg 77%
    17:00 +23°C° 0.6 mm 2 mps 735 mmHg 82%
    18:00 +22°C° 0.6 mm 1 mps 735 mmHg 86%
    19:00 +20°C° 0.6 mm 1 mps 736 mmHg 91%
    20:00 +20°C° 0.2 mm 1 mps 736 mmHg 90%
    21:00 +19°C° 0.2 mm 1 mps 736 mmHg 89%
    22:00 +19°C° 0.2 mm 1 mps 737 mmHg 88%
    23:00 +18°C° 0.1 mm 1 mps 737 mmHg 86%

    19 September, Thursday

    Time Temperature Precipitation Wind Pressure Humidity
    00:00 +18°C° 0.1 mm 1 mps 737 mmHg 85%
    01:00 +16°C° 0.1 mm 2 mps 737 mmHg 83%
    02:00 +16°C° 0 mm 1 mps 737 mmHg 82%
    03:00 +15°C° 0 mm 1 mps 737 mmHg 81%
    04:00 +15°C° 0 mm 1 mps 736 mmHg 80%
    05:00 +15°C° 0 mm 1 mps 737 mmHg 79%
    06:00 +15°C° 0 mm 1 mps 737 mmHg 78%
    07:00 +15°C° 0 mm 1 mps 737 mmHg 77%
    08:00 +18°C° 0 mm 1 mps 737 mmHg 70%
    09:00 +20°C° 0 mm 1 mps 737 mmHg 63%
    10:00 +22°C° 0 mm 1 mps 738 mmHg 56%
    11:00 +23°C° 0 mm 1 mps 738 mmHg 54%
    12:00 +23°C° 0 mm 2 mps 738 mmHg 53%
    13:00 +24°C° 0 mm 2 mps 738 mmHg 52%
    14:00 +23°C° 0 mm 2 mps 738 mmHg 55%
    15:00 +23°C° 0 mm 2 mps 738 mmHg 58%
    16:00 +21°C° 0 mm 2 mps 738 mmHg 60%
    17:00 +20°C° 0 mm 2 mps 738 mmHg 64%
    18:00 +19°C° 0 mm 1 mps 738 mmHg 69%
    19:00 +18°C° 0 mm 1 mps 739 mmHg 73%
    20:00 +16°C° 0 mm 1 mps 740 mmHg 72%
    21:00 +16°C° 0 mm 1 mps 740 mmHg 71%
    22:00 +15°C° 0 mm 1 mps 741 mmHg 71%
    23:00 +15°C° 0 mm 1 mps 741 mmHg 68%

    20 September, Friday

    Time Temperature Precipitation Wind Pressure Humidity
    00:00 +14°C° 0 mm 1 mps 741 mmHg 66%
    01:00 +14°C° 0 mm 1 mps 741 mmHg 63%
    02:00 +14°C° 0 mm 1 mps 741 mmHg 62%
    03:00 +14°C° 0 mm 1 mps 741 mmHg 60%
    04:00 +14°C° 0 mm 1 mps 741 mmHg 59%
    05:00 +14°C° 0 mm 1 mps 741 mmHg 59%
    06:00 +14°C° 0 mm 1 mps 741 mmHg 59%
    07:00 +14°C° 0 mm 1 mps 742 mmHg 59%
    08:00 +15°C° 0 mm 1 mps 742 mmHg 58%
    09:00 +16°C° 0 mm 2 mps 742 mmHg 58%
    10:00 +17°C° 0 mm 2 mps 742 mmHg 57%
    11:00 +17°C° 0 mm 2 mps 742 mmHg 57%
    12:00 +17°C° 0 mm 2 mps 742 mmHg 57%
    13:00 +17°C° 0 mm 2 mps 742 mmHg 56%
    14:00 +17°C° 0 mm 2 mps 742 mmHg 57%
    15:00 +17°C° 0 mm 2 mps 742 mmHg 57%
    16:00 +18°C° 0 mm 1 mps 742 mmHg 57%
    17:00 +16°C° 0 mm 1 mps 742 mmHg 61%
    18:00 +15°C° 0 mm 1 mps 742 mmHg 65%
    19:00 +13°C° 0 mm 0 mps 743 mmHg 69%
    20:00 +13°C° 0 mm 0 mps 743 mmHg 69%
    21:00 +13°C° 0 mm 0 mps 743 mmHg 70%
    22:00 +12°C° 0 mm 0 mps 744 mmHg 71%
    23:00 +12°C° 0 mm 0 mps 744 mmHg 70%
    Show more